�N����,����,�~����,�C��,���x,�C��,����,���ϕ���,�ő�u�ԕ���,�ő厞����,���˗�,�I�_���x,�n�����x,�ő啗���N��,DTYPE
"19/08/14","00:10",0.0,29.6,73.6,996.0,80.0,1.5,3.6,81.4,0.00,24.4,27.7,"00:07:52",1
"19/08/14","00:20",0.0,29.7,73.6,995.8,93.2,1.7,4.0,333.3,0.00,24.5,28.0,"00:12:56",1
"19/08/14","00:30",0.0,29.6,73.6,996.0,90.2,1.5,4.0,70.9,0.00,24.4,27.9,"00:22:24",1
"19/08/14","00:40",0.0,29.6,73.6,996.0,86.9,1.6,6.5,46.9,0.00,24.4,27.7,"00:37:04",1
"19/08/14","00:50",0.0,29.5,73.7,996.0,86.9,1.3,5.4,60.9,0.00,24.3,27.7,"00:42:00",1
"19/08/14","01:00",0.0,29.5,73.8,995.6,80.6,1.5,3.7,113.2,0.00,24.4,27.8,"00:50:40",1
"19/08/14","01:10",0.0,29.4,74.1,995.6,87.3,1.3,5.1,11.6,0.00,24.3,27.7,"01:08:32",1
"19/08/14","01:20",0.0,29.4,74.1,995.8,85.0,1.2,2.9,115.2,0.00,24.3,27.7,"01:11:52",1
"19/08/14","01:30",0.0,29.4,74.2,995.3,81.8,1.1,3.4,106.0,0.00,24.4,27.4,"01:29:36",1
"19/08/14","01:40",0.0,29.4,74.6,995.8,78.6,1.2,3.2,92.2,0.00,24.5,27.7,"01:37:52",1
"19/08/14","01:50",0.0,29.2,75.0,995.6,104.5,1.1,3.3,128.8,0.00,24.4,27.5,"01:44:56",1
"19/08/14","02:00",0.0,29.3,74.7,995.3,93.5,1.3,4.2,53.3,0.00,24.4,27.7,"01:56:08",1
"19/08/14","02:10",0.0,29.3,74.4,995.1,62.0,1.3,3.9,22.1,0.00,24.3,27.6,"02:05:04",1
"19/08/14","02:20",0.0,29.4,73.9,995.1,91.3,1.5,5.1,20.9,0.00,24.3,27.7,"02:12:56",1
"19/08/14","02:30",0.0,29.4,73.5,994.8,92.1,1.3,3.6,108.0,0.00,24.2,27.6,"02:23:04",1
"19/08/14","02:40",0.0,29.5,73.1,994.8,95.0,1.6,3.5,65.8,0.00,24.2,27.6,"02:31:12",1
"19/08/14","02:50",0.0,29.5,73.2,994.8,97.2,1.6,3.9,99.2,0.00,24.2,27.5,"02:45:20",1
"19/08/14","03:00",0.0,29.5,73.2,995.1,89.8,1.2,2.8,60.5,0.00,24.2,27.5,"02:54:32",1
"19/08/14","03:10",0.0,29.4,73.5,994.6,104.4,1.7,3.9,122.0,0.00,24.2,27.6,"03:09:12",1
"19/08/14","03:20",0.0,29.4,73.7,994.6,99.6,1.5,3.6,91.7,0.00,24.3,27.5,"03:15:12",1
"19/08/14","03:30",0.0,29.5,73.6,994.6,87.4,1.7,4.3,115.7,0.00,24.3,27.7,"03:28:16",1
"19/08/14","03:40",0.0,29.4,74.0,994.8,96.2,2.0,4.2,16.7,0.00,24.3,27.4,"03:33:44",1
"19/08/14","03:50",0.0,29.3,74.3,994.6,104.8,1.5,3.2,110.0,0.00,24.3,27.6,"03:47:20",1
"19/08/14","04:00",0.0,29.3,74.4,995.1,112.4,1.5,4.1,43.5,0.00,24.3,27.5,"03:55:20",1
"19/08/14","04:10",0.0,29.3,74.9,994.8,123.1,1.5,4.3,105.8,0.00,24.4,27.4,"04:00:32",1
"19/08/14","04:20",0.0,29.3,75.1,994.6,98.4,1.3,3.5,67.9,0.00,24.5,27.3,"04:12:40",1
"19/08/14","04:30",0.0,29.3,74.9,994.8,92.9,1.6,3.9,130.9,0.00,24.4,27.5,"04:20:32",1
"19/08/14","04:40",0.0,29.3,74.6,994.6,106.9,1.2,3.6,74.9,0.00,24.4,27.5,"04:31:04",1
"19/08/14","04:50",0.0,29.2,74.6,994.4,95.0,1.5,3.4,66.5,0.00,24.3,27.4,"04:40:08",1
"19/08/14","05:00",0.0,29.1,74.5,994.6,107.3,1.2,2.9,124.9,0.00,24.1,27.4,"04:57:28",1
"19/08/14","05:10",0.0,29.3,74.1,994.6,98.2,1.7,4.5,50.3,0.00,24.2,27.4,"05:05:44",1
"19/08/14","05:20",0.0,29.2,74.0,993.9,107.7,1.6,5.9,103.0,0.00,24.1,27.4,"05:10:40",1
"19/08/14","05:30",0.0,29.2,74.3,994.4,104.1,1.7,4.3,86.6,0.00,24.2,27.3,"05:28:48",1
"19/08/14","05:40",0.0,29.2,74.1,994.4,113.0,1.8,4.2,87.6,0.00,24.1,27.4,"05:33:28",1
"19/08/14","05:50",0.0,29.2,74.4,994.4,122.6,1.6,3.6,131.0,0.00,24.2,27.2,"05:48:16",1
"19/08/14","06:00",0.0,29.2,74.1,994.4,110.1,1.6,3.1,89.6,0.00,24.1,27.5,"05:51:20",1
"19/08/14","06:10",0.0,29.2,74.3,994.1,107.8,1.2,2.5,141.2,0.00,24.2,27.3,"06:04:08",1
"19/08/14","06:20",0.0,29.1,74.5,994.4,103.0,1.6,4.1,38.2,0.00,24.1,27.3,"06:18:24",1
"19/08/14","06:30",0.0,29.2,74.5,994.4,104.9,1.8,4.1,207.0,0.00,24.2,27.4,"06:29:28",1
"19/08/14","06:40",0.0,28.4,77.6,994.8,116.3,1.7,4.9,105.7,0.00,24.1,27.2,"06:35:12",1
"19/08/14","06:50",0.0,28.0,80.2,994.4,116.9,1.2,3.3,154.4,0.00,24.3,27.3,"06:47:36",1
"19/08/14","07:00",0.0,27.9,81.1,994.6,113.5,1.3,3.7,128.5,0.01,24.4,27.1,"06:52:40",1
"19/08/14","07:10",0.0,28.2,81.2,994.6,108.8,1.2,2.9,88.9,0.02,24.7,27.2,"07:08:40",1
"19/08/14","07:20",0.0,29.4,78.7,994.4,105.0,1.3,3.2,104.6,0.13,25.4,27.2,"07:12:32",1
"19/08/14","07:30",0.0,29.7,75.2,993.7,96.6,1.7,3.5,114.1,0.15,24.9,27.5,"07:25:36",1
"19/08/14","07:40",0.0,29.6,75.7,994.4,105.0,1.8,4.0,142.0,0.15,24.9,27.3,"07:39:36",1
"19/08/14","07:50",0.0,29.2,76.2,994.4,103.0,2.1,5.8,105.9,0.07,24.6,27.4,"07:47:20",1
"19/08/14","08:00",0.0,28.9,76.5,994.1,89.2,1.8,3.5,64.0,0.01,24.4,27.4,"07:56:00",1
"19/08/14","08:10",0.0,28.8,77.3,994.8,97.4,1.7,4.8,141.8,0.06,24.5,27.5,"08:03:28",1
"19/08/14","08:20",0.0,29.0,76.9,994.6,94.9,1.7,4.3,44.5,0.05,24.6,27.4,"08:13:44",1
"19/08/14","08:30",0.0,29.1,76.9,994.8,90.7,1.7,4.2,91.6,0.09,24.7,27.5,"08:24:24",1
"19/08/14","08:40",0.0,29.3,76.1,993.9,90.6,2.2,4.5,91.2,0.11,24.7,27.6,"08:37:28",1
"19/08/14","08:50",0.0,29.5,76.4,993.9,103.6,1.5,3.7,169.6,0.11,24.9,27.7,"08:41:44",1
"19/08/14","09:00",0.0,29.6,76.0,994.4,107.3,1.6,3.9,29.9,0.12,25.0,27.5,"08:58:16",1
"19/08/14","09:10",0.0,29.7,75.5,994.6,101.1,1.8,3.7,96.9,0.18,24.9,27.7,"09:08:00",1
"19/08/14","09:20",0.0,29.9,75.4,994.8,92.8,1.5,3.9,86.8,0.17,25.1,27.8,"09:16:24",1
"19/08/14","09:30",0.0,29.9,75.4,995.1,81.8,1.6,3.5,94.1,0.18,25.1,27.8,"09:21:36",1
"19/08/14","09:40",0.0,30.0,75.4,994.6,85.6,1.7,4.2,58.5,0.15,25.2,28.1,"09:34:48",1
"19/08/14","09:50",0.0,30.1,74.1,994.8,83.6,2.0,5.0,121.5,0.17,25.0,28.1,"09:43:44",1
"19/08/14","10:00",0.0,30.3,76.4,994.6,94.6,1.6,4.5,147.9,0.19,25.7,27.9,"09:57:04",1
"19/08/14","10:10",0.0,31.1,72.8,995.3,99.5,2.0,5.1,44.2,0.44,25.7,28.4,"10:06:00",1
"19/08/14","10:20",0.0,30.4,73.1,995.3,101.2,1.8,4.4,158.8,0.21,25.1,28.5,"10:17:04",1
"19/08/14","10:30",0.0,31.5,72.6,995.3,105.1,2.2,5.6,89.8,0.44,26.0,28.5,"10:26:56",1
"19/08/14","10:40",0.0,31.7,70.8,995.3,109.3,2.0,4.9,146.1,0.44,25.8,29.1,"10:33:28",1
"19/08/14","10:50",0.0,31.0,71.8,995.6,129.1,2.0,5.5,117.6,0.28,25.3,29.1,"10:43:12",1
"19/08/14","11:00",0.0,30.5,71.0,995.3,134.4,2.8,6.3,177.2,0.21,24.7,28.9,"10:51:44",1
"19/08/14","11:10",0.0,31.1,69.9,994.6,121.2,2.2,5.7,124.9,0.18,25.0,28.9,"11:04:32",1
"19/08/14","11:20",0.0,31.2,68.2,995.1,126.8,2.3,5.7,95.8,0.18,24.7,29.0,"11:17:04",1
"19/08/14","11:30",0.0,31.2,68.2,995.1,123.2,2.0,5.4,126.7,0.19,24.7,29.1,"11:24:24",1
"19/08/14","11:40",0.0,32.9,63.7,995.1,112.9,2.2,4.5,93.8,0.52,25.1,29.3,"11:37:44",1
"19/08/14","11:50",0.0,32.9,62.0,995.6,108.2,2.2,5.9,131.8,0.50,24.7,29.6,"11:40:48",1
"19/08/14","12:00",0.0,32.8,62.0,995.3,106.6,2.7,6.3,91.9,0.58,24.6,29.7,"11:51:20",1
"19/08/14","12:10",0.0,33.0,61.5,994.6,119.9,2.8,6.0,120.8,0.49,24.6,29.8,"12:00:56",1
"19/08/14","12:20",0.0,33.2,61.9,994.6,95.4,2.6,5.8,119.1,0.51,24.9,30.4,"12:17:52",1
"19/08/14","12:30",0.0,33.2,61.2,994.6,88.9,2.5,4.8,75.5,0.55,24.8,30.4,"12:25:20",1
"19/08/14","12:40",0.0,32.9,61.9,994.8,97.3,2.6,5.5,79.4,0.45,24.7,30.6,"12:38:40",1
"19/08/14","12:50",0.0,33.4,61.7,994.4,104.4,2.7,7.1,101.0,0.43,25.1,30.8,"12:44:00",1
"19/08/14","13:00",0.0,33.4,59.6,994.1,105.5,2.7,5.7,124.8,0.52,24.5,31.1,"12:50:08",1
"19/08/14","13:10",0.0,32.8,60.9,994.6,104.4,2.7,6.2,127.8,0.46,24.3,31.2,"13:06:40",1
"19/08/14","13:20",0.0,33.5,61.2,994.1,110.3,2.8,5.7,95.6,0.57,25.0,31.1,"13:18:16",1
"19/08/14","13:30",0.0,32.6,61.8,994.4,106.2,3.0,6.2,93.3,0.36,24.4,31.1,"13:20:40",1
"19/08/14","13:40",0.0,32.2,63.3,994.4,110.3,2.6,5.8,125.1,0.28,24.4,31.3,"13:37:52",1
"19/08/14","13:50",0.0,31.7,65.2,993.9,110.8,2.3,6.4,104.9,0.17,24.4,31.1,"13:42:32",1
"19/08/14","14:00",0.0,31.7,64.7,993.9,110.0,2.5,5.4,69.4,0.11,24.3,30.8,"13:53:28",1
"19/08/14","14:10",0.0,31.4,64.9,993.4,91.1,2.0,4.3,130.5,0.07,24.0,30.7,"14:05:52",1
"19/08/14","14:20",0.0,31.2,65.8,992.7,97.7,1.7,4.0,105.5,0.02,24.1,30.6,"14:12:32",1
"19/08/14","14:30",0.0,31.3,65.6,992.7,93.1,1.6,3.5,96.9,0.07,24.1,30.6,"14:23:36",1
"19/08/14","14:40",0.0,31.2,66.6,992.5,109.8,2.3,6.4,153.9,0.05,24.3,30.3,"14:35:04",1
"19/08/14","14:50",0.0,30.5,70.1,992.2,106.8,2.3,5.6,96.4,0.02,24.5,30.1,"14:48:08",1
"19/08/14","15:00",0.2,29.2,76.7,991.5,108.1,1.8,4.8,99.4,0.05,24.7,29.8,"14:56:48",1
"19/08/14","15:10",0.2,28.4,81.9,991.1,104.5,1.7,4.7,97.4,0.10,25.0,29.7,"15:06:16",1
"19/08/14","15:20",0.0,29.0,84.2,991.1,105.2,2.0,4.4,155.8,0.23,26.1,29.5,"15:18:48",1
"19/08/14","15:30",0.0,28.8,83.3,991.5,104.8,2.2,5.0,122.8,0.31,25.7,29.6,"15:21:20",1
"19/08/14","15:40",0.2,28.9,82.6,991.1,98.4,2.0,4.4,110.0,0.08,25.7,29.7,"15:31:44",1
"19/08/14","15:50",0.2,28.4,85.1,991.1,98.3,1.6,3.1,67.5,0.15,25.7,29.5,"15:45:44",1
"19/08/14","16:00",0.0,28.8,84.9,991.1,104.0,1.6,4.5,136.4,0.14,26.0,29.5,"15:56:00",1
"19/08/14","16:10",0.0,29.2,83.0,991.1,87.8,2.1,4.4,96.9,0.13,26.1,29.4,"16:05:32",1
"19/08/14","16:20",0.0,29.5,80.9,991.1,90.0,2.1,4.8,85.0,0.12,25.9,29.4,"16:15:36",1
"19/08/14","16:30",0.0,29.5,79.6,991.3,94.3,2.0,4.2,82.7,0.08,25.6,29.4,"16:29:04",1
"19/08/14","16:40",0.0,29.7,78.8,991.3,87.5,1.6,4.2,111.2,0.07,25.7,29.3,"16:39:22",1
"19/08/14","16:50",0.0,29.5,78.3,991.3,95.2,1.8,4.2,114.6,0.04,25.4,29.2,"16:43:04",1
"19/08/14","17:00",0.0,29.6,77.7,991.1,84.1,2.0,6.2,51.3,0.03,25.3,29.1,"16:53:36",1
"19/08/14","17:10",0.0,29.6,77.6,991.1,100.4,1.6,4.0,133.8,0.04,25.3,29.0,"17:04:48",1
"19/08/14","17:20",0.0,29.7,77.7,991.1,91.0,1.8,4.3,77.1,0.06,25.4,28.7,"17:13:36",1
"19/08/14","17:30",0.0,29.7,77.2,990.8,85.4,1.8,4.7,89.1,0.06,25.3,28.9,"17:24:32",1
"19/08/14","17:40",0.0,29.7,77.5,991.3,92.6,1.6,4.4,111.8,0.06,25.4,28.9,"17:35:44",1
"19/08/14","17:50",0.0,29.7,77.6,990.8,82.0,2.1,5.0,83.6,0.05,25.4,28.8,"17:43:12",1
"19/08/14","18:00",0.0,29.7,77.6,991.1,88.8,1.7,4.2,109.9,0.06,25.4,28.7,"17:59:52",1
"19/08/14","18:10",0.0,29.6,77.9,991.3,90.0,2.0,4.7,83.3,0.04,25.4,28.7,"18:04:16",1
"19/08/14","18:20",0.0,29.3,79.1,991.1,86.4,2.0,4.0,83.8,0.02,25.3,28.6,"18:10:48",1
"19/08/14","18:30",0.0,28.9,80.8,991.5,95.3,1.7,5.5,117.8,0.03,25.3,28.6,"18:27:28",1
"19/08/14","18:40",0.0,28.8,81.7,991.8,98.3,1.7,4.9,105.6,0.02,25.4,28.4,"18:30:24",1
"19/08/14","18:50",0.0,28.8,81.7,991.8,91.7,1.7,4.3,139.0,0.01,25.4,28.4,"18:40:32",1
"19/08/14","19:00",0.0,28.8,81.7,991.8,94.9,1.8,5.4,141.4,0.00,25.4,28.5,"18:59:44",1
"19/08/14","19:10",0.0,28.9,81.5,991.8,113.4,1.7,4.7,156.7,0.00,25.5,28.3,"19:02:00",1
"19/08/14","19:20",0.0,28.8,81.7,992.0,94.7,1.8,4.2,68.5,0.00,25.4,28.2,"19:18:48",1
"19/08/14","19:30",0.0,28.7,82.2,992.0,95.0,1.7,4.8,75.9,0.00,25.4,28.2,"19:22:32",1
"19/08/14","19:40",0.0,28.7,82.0,991.5,94.7,1.8,4.1,144.0,0.00,25.4,28.2,"19:37:20",1
"19/08/14","19:50",0.0,28.8,81.5,991.8,114.2,1.6,4.7,66.7,0.00,25.4,28.1,"19:47:44",1
"19/08/14","20:00",0.0,28.9,80.8,991.8,96.9,1.6,3.5,92.8,0.00,25.3,28.0,"19:50:02",1
"19/08/14","20:10",0.0,28.8,80.8,991.3,98.8,1.6,3.7,146.1,0.00,25.2,27.9,"20:05:12",1
"19/08/14","20:20",0.0,28.7,81.2,991.5,104.1,1.6,4.7,152.7,0.00,25.2,28.0,"20:18:48",1
"19/08/14","20:30",0.0,28.8,81.2,992.0,108.1,1.6,3.7,76.5,0.00,25.3,27.9,"20:25:36",1
"19/08/14","20:40",0.0,28.8,81.0,992.2,94.8,1.6,5.2,112.3,0.00,25.3,27.9,"20:34:24",1
"19/08/14","20:50",0.0,28.9,80.7,992.2,94.8,2.0,5.6,82.3,0.00,25.3,27.8,"20:42:24",1
"19/08/14","21:00",0.0,28.9,80.5,992.0,90.9,1.8,4.3,81.8,0.00,25.2,27.8,"20:58:16",1
"19/08/14","21:10",0.0,28.9,80.4,992.2,96.1,1.8,4.5,89.6,0.00,25.2,27.7,"21:09:20",1
"19/08/14","21:20",0.0,28.9,80.4,992.2,84.2,1.5,4.1,110.5,0.00,25.2,27.7,"21:15:36",1
"19/08/14","21:30",0.0,29.0,80.0,992.5,85.7,1.5,3.5,56.6,0.00,25.2,27.8,"21:21:20",1
"19/08/14","21:40",0.0,29.0,79.9,992.5,77.1,1.5,4.0,50.5,0.00,25.2,27.7,"21:34:32",1
"19/08/14","21:50",0.0,29.0,79.9,992.0,90.9,1.8,3.9,90.2,0.00,25.2,27.7,"21:42:16",1
"19/08/14","22:00",0.0,28.9,79.8,992.0,85.5,1.8,4.7,83.3,0.00,25.1,27.6,"21:54:24",1
"19/08/14","22:10",0.0,28.9,79.6,992.0,80.1,1.6,3.3,76.5,0.00,25.1,27.3,"22:04:00",1
"19/08/14","22:20",0.0,29.0,78.8,992.0,92.2,1.8,4.0,88.6,0.00,25.0,27.5,"22:14:08",1
"19/08/14","22:30",0.0,29.1,77.6,991.5,90.6,2.0,5.0,45.3,0.00,24.8,27.7,"22:27:36",1
"19/08/14","22:40",0.0,29.2,77.3,991.5,90.3,1.7,3.6,100.8,0.00,24.9,27.5,"22:37:20",1
"19/08/14","22:50",0.0,29.1,77.3,991.8,94.9,1.8,4.3,92.5,0.00,24.8,27.4,"22:40:16",1
"19/08/14","23:00",0.0,29.1,77.0,991.8,94.0,1.8,4.4,90.7,0.00,24.7,27.5,"22:58:32",1
"19/08/14","23:10",0.0,29.1,76.7,991.3,104.9,1.7,4.1,73.8,0.00,24.6,27.6,"23:09:20",1
"19/08/14","23:20",0.0,29.1,76.3,991.5,101.0,1.7,4.1,101.3,0.00,24.5,27.5,"23:10:40",1
"19/08/14","23:30",0.0,29.2,75.9,991.3,88.2,1.7,4.2,160.9,0.00,24.5,27.3,"23:23:52",1
"19/08/14","23:40",0.0,29.1,75.8,991.3,96.5,1.6,3.9,110.5,0.00,24.4,27.3,"23:38:00",1
"19/08/14","23:50",0.0,29.3,75.3,991.3,98.3,2.0,3.9,63.7,0.00,24.5,27.2,"23:43:36",1
"19/08/14","24:00",0.0,29.3,74.6,991.3,89.3,2.0,4.9,140.4,0.00,24.4,27.2,"23:59:04",1
